COSMOS 2346

导读 | 星芒AI

COSMOS 2346 是俄罗斯于1996年发射的一颗军用通信卫星,搭载于“联盟”号运载火箭,主要用于军事通信和情报传输。该卫星属于俄罗斯的“宇宙”(COSMOS)系列,这一系列涵盖多种用途的卫星,包括侦察、导航和通信。COSMOS 2346 的具体任务细节未公开,但其发射体现了冷战后期至后冷战时期俄罗斯在太空军事化方面的持续投入。该卫星最终在轨道上运行多年后失效,成为太空碎片的一部分。

基本信息
目录编号:
24953
目录名称:
COSMOS 2346
国际标识:
1997-052A
轨道中心:
EARTH
卫星名称:
COSMOS 2346
卫星全名:
--
卫星状态:
在轨 (已飞行10263 天)
发射日期:
1997-09-23 UTC
国别 :
俄罗斯(独联体) (CIS)
星等 :
--
轨道信息
数据来源 国际轨道数据
星历时间: 2025-10-28T21:46:22+0800
17小时前
查看轨道信息
半长轴: 7342.726km
偏心率: 0.0038267
轨道倾角: 82.923°
近地点辐角 254.443°
升交点赤经 160.624°
平近点角 123.762°
近地点: 936.492km
远地点: 992.69km
周期: 104.363分钟
每日圈数: 13.798021
详细信息
使用方式:
暂无
2D轨道图
3D轨道图
轨道高度分析图
轨道倾角分析图
轨道综合分析图
查看轨道综合分析图